CAPE
0 7 133 342 328 442 426 339 483 640 584 522 463 423 363 189 65 90 122 92 100 100
0 0 0 41 100 226 293 272 272 320 541 479 306 334 295 179 64 66 94 76 98 69
0 0 0 0 0 14 66 114 184 274 337 469 400 276 150 93 53 54 139 78 76 126
0 0 0 0 0 0 0 18 49 150 289 286 384 283 107 31 38 40 53 99 44 57
2 4 0 0 0 0 0 0 12 92 91 88 286 282 78 55 53 60 89 98 48 47
28 30 3 0 0 0 0 0 3 38 77 49 120 91 70 69 48 77 70 92 46 9
20 105 72 56 17 1 2 24 57 83 65 86 75 73 78 18 15 53 9 30 22 8
31 79 124 96 33 17 205 156 98 132 82 88 67 24 46 109 21 14 7 11 12 0
9 45 68 49 76 188 231 259 149 220 147 47 89 36 43 0 6 8 21 1 0 0
8 9 20 7 40 78 130 26 97 31 18 0 28 36 12 5 7 0 0 0 0 0
0 0 33 21 2 50 23 13 14 8 3 10 13 0 5 0 0 0 0 0 0 0
0 0 0 0 0 0 1 3 5 1 0 0 0 0 0 0 0 0 0 0 0 0
1 2 3 0 5 0 0 0 0 0 0 0 0 0 0 0 0 0 0 0 0 0
4 0 1 0 0 0 0 0 0 0 0 0 0 0 0 0 0 0 0 0 0 0
CIN
-0 -50 -136 -78 -85 -55 -54 -45 -37 -55 -44 -54 -75 -55 -41 -40 -38 -7 -3 -0 -0 -0
-0 -0 -0 -211 -142 -140 -95 -78 -66 -50 -42 -42 -34 -49 -35 -29 -19 -6 -0 -0 -0 -0
-0 -0 -0 -0 -0 -120 -142 -180 -122 -71 -57 -63 -30 -26 -42 -29 -10 -1 -3 -0 -1 -0
-0 -0 -0 -0 -0 -0 -0 -140 -100 -104 -46 -44 -27 -16 -9 -20 -0 -0 -1 -0 -0 -2
-115 -108 -0 -0 -0 -0 -0 -0 -110 -132 -101 -72 -15 -8 -16 -0 -0 -0 -0 -0 -0 -0
-113 -68 -83 -0 -0 -0 -0 -0 -0 -50 -50 -31 -11 -6 -0 -0 -0 -2 -10 -5 -7 -0
-121 -48 -76 -62 -54 -0 -0 -21 -24 -19 -19 -4 -1 -1 -2 -4 -8 -0 -23 -2 -4 -0
-120 -49 -34 -35 -52 -56 -0 -0 -5 -5 -1 -0 -0 -3 -5 -6 -18 -0 -0 -2 -1 -0
-58 -38 -30 -32 -7 -0 -0 -0 -5 -0 -0 -11 -0 -0 -35 -0 -0 -1 -13 -0 -0 -0
-26 -11 -1 -8 -1 -0 -0 -51 -0 -18 -0 -0 -0 -1 -3 -0 -0 -0 -0 -0 -0 -0
-0 -0 -0 -0 -0 -1 -20 -2 -3 -0 -0 -0 -0 -0 -0 -0 -0 -0 -0 -0 -0 -0
-0 -0 -0 -0 -0 -0 -0 -3 -7 -2 -0 -0 -0 -0 -0 -0 -0 -0 -0 -0 -0 -0
-0 -0 -1 -0 -0 -0 -0 -0 -0 -0 -0 -0 -0 -0 -0 -0 -0 -0 -0 -0 -0 -0
-0 -0 -0 -0 -0 -0 -0 -0 -0 -0 -0 -0 -0 -0 -0 -0 -0 -0 -0 -0 -0 -0
Wind_Speed
nan nan 57 57 59 58 55 52 51 49 49 52 54 56 55 51 nan nan 55 nan 55 56
nan nan nan nan 61 60 61 61 60 59 60 53 56 56 59 58 nan nan nan nan nan nan
nan nan nan nan nan nan nan 73 72 70 66 64 61 66 67 nan nan nan 59 nan nan 56
nan nan nan nan nan nan nan nan nan 77 76 69 69 68 70 nan nan nan nan nan nan nan
nan nan nan nan nan nan nan nan nan nan nan nan 66 73 nan nan nan nan nan nan nan nan
nan nan nan nan nan nan nan nan nan nan nan nan 67 nan nan nan nan nan nan nan nan nan
nan 44 nan nan nan nan nan nan nan nan nan nan nan nan nan nan nan nan nan nan nan nan
nan nan 41 nan nan nan 61 63 nan 68 nan nan nan nan nan 56 nan nan nan nan nan nan
nan nan nan nan nan 47 50 53 56 56 61 nan nan nan nan nan nan nan nan nan nan nan
nan nan nan nan nan nan 33 nan nan nan nan nan nan nan nan nan nan nan nan nan nan nan
nan nan nan nan nan nan nan nan nan nan nan nan nan nan nan nan nan nan nan nan nan nan
nan nan nan nan nan nan nan nan nan nan nan nan nan nan nan nan nan nan nan nan nan nan
nan nan nan nan nan nan nan nan nan nan nan nan nan nan nan nan nan nan nan nan nan nan
nan nan nan nan nan nan nan nan nan nan nan nan nan nan nan nan nan nan nan nan nan nan
Wind_Direction
nan nan 262 262 260 262 263 262 259 262 267 273 276 278 276 274 nan nan 276 nan 280 281
nan nan nan nan 262 260 259 259 264 265 266 266 269 263 275 273 nan nan nan nan nan nan
nan nan nan nan nan nan nan 259 263 264 265 265 265 265 269 nan nan nan 273 nan nan 282
nan nan nan nan nan nan nan nan nan 262 265 266 266 265 264 nan nan nan nan nan nan nan
nan nan nan nan nan nan nan nan nan nan nan nan 266 266 nan nan nan nan nan nan nan nan
nan nan nan nan nan nan nan nan nan nan nan nan 268 nan nan nan nan nan nan nan nan nan
nan 258 nan nan nan nan nan nan nan nan nan nan nan nan nan nan nan nan nan nan nan nan
nan nan 256 nan nan nan 253 255 nan 256 nan nan nan nan nan 267 nan nan nan nan nan nan
nan nan nan nan nan 257 256 255 255 256 256 nan nan nan nan nan nan nan nan nan nan nan
nan nan nan nan nan nan 247 nan nan nan nan nan nan nan nan nan nan nan nan nan nan nan
nan nan nan nan nan nan nan nan nan nan nan nan nan nan nan nan nan nan nan nan nan nan
nan nan nan nan nan nan nan nan nan nan nan nan nan nan nan nan nan nan nan nan nan nan
nan nan nan nan nan nan nan nan nan nan nan nan nan nan nan nan nan nan nan nan nan nan
nan nan nan nan nan nan nan nan nan nan nan nan nan nan nan nan nan nan nan nan nan nan